Skip Page Navigation
NASA JPL Caltech
NASA Logo - Jet Propulsion Laboratory + View the NASA Portal
+ Center for Near-Earth Object Studies
JPL Home Earth Solar System Stars & Galaxies Technology
JPL Solar System Dynamics
BODIES ORBITS EPHEMERIDES TOOLS PHYSICAL DATA DISCOVERY FAQ SITE MAP
JPL Small-Body Database Browser
Search: [ help ]  
160481 (2006 XH32)
Classification: Main-belt Asteroid          SPK-ID: 2160481
Ephemeris | Orbit Diagram | Orbital Elements | Mission Design | Physical Parameters | Discovery Circumstances | Close-Approach Data ]

[ show orbit diagram ]
Orbital Elements at Epoch 2459000.5 (2020-May-31.0) TDB
Reference: JPL 14 (heliocentric ecliptic J2000)
 Element Value Uncertainty (1-sigma)   Units 
e .04269330833414132 6.0435e-08  
a 3.165892844300576 3.0096e-08 au
q 3.030730404946 1.969e-07 au
i 3.976798384789304 5.9366e-06 deg
node 63.24907558466737 7.4534e-05 deg
peri 153.2897676774096 9.9087e-05 deg
M 12.28324578635799 6.2424e-05 deg
tp 2458930.297369565093
(2020-Mar-21.79736956)
0.00035721 TDB
period 2057.513738317873
5.63
2.9339e-05
8.033e-08
d
yr
n .1749684550317118 2.495e-09 deg/d
Q 3.301055283655153 3.1381e-08 au
  Orbit Determination Parameters
   # obs. used (total)      389  
   data-arc span      21761 days (59.58 yr)  
   first obs. used      1960-09-29  
   last obs. used      2020-04-28  
   planetary ephem.      DE431  
   SB-pert. ephem.      SB431-N16  
   condition code      0  
   norm. resid. RMS      .55841  
   source      ORB  
   producer      Otto Matic  
   solution date      2020-May-21 01:33:41  

Additional Information
 Earth MOID = 2.02353 au 
 Jupiter MOID = 1.66383 au 
 T_jup = 3.198 
[ show covariance matrix ]

Ephemeris | Orbit Diagram | Orbital Elements | Mission Design | Physical Parameters | Discovery Circumstances | Close-Approach Data ]

Physical Parameter Table
Parameter Symbol Value Units Sigma Reference Notes
absolute magnitude H 15.4   n/a MPO469696  

160481 (2006 XH32)          Discovered 2006-Dec-09 by Spacewatch at Kitt Peak
Reference: 20070730/Numbers.arcLast Updated: 2007-08-06

[ show close-approach data ]
Alternate Designations
 2006 XH32 = 2005 TA176 
Ephemeris | Orbit Diagram | Orbital Elements | Mission Design | Physical Parameters | Discovery Circumstances | Close-Approach Data ]
ABOUT SSD CREDITS/AWARDS PRIVACY/COPYRIGHT GLOSSARY LINKS
FirstGov 2020-Jul-10 11:49 UT
(server date/time)  
NASA Home Page
Site Manager:   Ryan S. Park
Webmaster  Alan B. Chamberlin